KF5WOE-13 Weather Reports


Display with metric or nautical units.
time (UTC)temp
F
wind
direction
speed
MPH
gust
MPH
rain 1hr
in
rain 24hr
in
rain mn
in
humidity
%
barometer
mb
20260509135601 140 325 3.0 7.0 0.00 0.01 0.01 1011.8
20260509135059 140 325 3.0 6.0 0.00 0.01 0.01 1011.6
20260509134555 140 305 3.0 5.0 0.00 0.01 0.01 1011.5
20260509134053 140 315 4.0 7.0 0.00 0.01 0.01 1011.7
20260509133550 140 299 3.0 5.0 0.00 0.01 0.01 1011.6
20260509133047 140 16 8.0 9.0 0.00 0.01 0.01 1011.6
20260509132546 140 7 9.0 10.0 0.00 0.01 0.01 1011.6
20260509132044 140 13 13.0 16.0 0.00 0.01 0.01 1011.7
20260509131539 140 358 11.0 11.0 0.00 0.01 0.01 1011.4
20260509131037 140 1 7.0 8.0 0.00 0.01 0.01 1011.3
20260509130532 140 23 7.0 8.0 0.00 0.01 0.01 1011.5
20260509130029 140 16 7.0 11.0 0.00 0.01 0.01 1011.4
20260509125525 140 32 4.0 6.0 0.00 0.01 0.01 1011.5
20260509125022 140 14 3.0 5.0 0.00 0.01 0.01 1011.6
20260509124519 140 10 5.0 6.0 0.00 0.01 0.01 1011.7
20260509124016 140 333 0.0 0.0 0.00 0.01 0.01 1011.5
20260509123514 140 322 1.0 2.0 0.00 0.01 0.01 1011.4
20260509123010 140 11 5.0 6.0 0.00 0.01 0.01 1011.5
20260509122506 140 356 0.0 0.0 0.00 0.01 0.01 1011.5
20260509122003 140 271 0.0 0.0 0.00 0.01 0.01 1011.5
20260509121500 140 278 0.0 0.0 0.00 0.01 0.01 1011.5
20260509120958 140 340 0.0 0.0 0.00 0.01 0.01 1011.4
20260509120455 140 207 0.0 0.0 0.00 0.01 0.01 1011.3
20260509115954 140 260 0.0 0.0 0.00 0.01 0.01 1011.2
20260509115451 140 190 0.0 0.0 0.00 0.01 0.01 1011.4
20260509114948 140 233 0.0 0.0 0.00 0.01 0.01 1010.8
20260509114446 140 160 0.0 0.0 0.00 0.01 0.01 1011.0
20260509113945 140 244 0.0 0.0 0.00 0.01 0.01 1011.0
20260509113442 140 276 3.0 3.0 0.00 0.01 0.01 1010.7
20260509112939 140 326 3.0 3.0 0.00 0.01 0.01 1010.4
20260509112437 140 328 6.0 10.0 0.00 0.01 0.01 1010.3
20260509111933 140 337 7.0 8.0 0.00 0.01 0.01 1010.1
20260509111431 140 300 5.0 8.0 0.00 0.01 0.01 1010.1
20260509110928 140 329 4.0 5.0 0.00 0.01 0.01 1010.1
20260509110423 140 328 9.0 11.0 0.00 0.01 0.01 1010.1
20260509105922 140 316 6.0 7.0 0.00 0.01 0.01 1009.7
20260509105420 140 343 5.0 6.0 0.00 0.01 0.01 1009.8
20260509104917 140 328 3.0 3.0 0.00 0.01 0.01 1009.5
20260509104414 140 325 5.0 6.0 0.00 0.01 0.01 1009.7
20260509103911 140 356 5.0 6.0 0.00 0.01 0.01 1009.7
20260509103408 140 342 5.0 6.0 0.00 0.01 0.01 1009.8
20260509102907 140 19 7.0 9.0 0.00 0.01 0.01 1009.6
20260509102403 140 329 4.0 6.0 0.00 0.01 0.01 1009.6
20260509101853 140 0 4.0 5.0 0.00 0.01 0.01 1009.8
20260509101350 140 26 3.0 5.0 0.00 0.01 0.01 1009.8
20260509100848 140 23 1.0 1.0 0.00 0.01 0.01 1009.9
20260509100344 140 43 4.0 5.0 0.00 0.01 0.01 1009.9
20260509095841 140 328 0.0 0.0 0.00 0.01 0.01 1009.9
20260509095338 140 325 0.0 0.0 0.00 0.01 0.01 1009.9
20260509094836 140 354 4.0 5.0 0.00 0.01 0.01 1009.8
20260509094332 140 322 4.0 5.0 0.00 0.01 0.01 1009.9
20260509093830 140 358 4.0 5.0 0.00 0.01 0.01 1010.0
20260509093327 140 357 9.0 10.0 0.00 0.01 0.01 1009.9
20260509092825 140 345 4.0 5.0 0.00 0.01 0.01 1009.5
20260509092323 140 324 9.0 10.0 0.00 0.01 0.01 1009.5
20260509091821 140 279 10.0 13.0 0.00 0.01 0.01 1008.9
20260509091317 140 310 13.0 18.0 0.00 0.01 0.01 1009.0
20260509090815 140 232 4.0 5.0 0.00 0.01 0.01 1008.0
20260509090312 140 228 3.0 3.0 0.00 0.01 0.01 1007.4
20260509085809 140 132 3.0 5.0 0.00 0.01 0.01 1006.7
20260509085307 140 167 3.0 3.0 0.00 0.01 0.01 1006.2
20260509084803 140 130 10.0 13.0 0.00 0.01 0.01 1005.8
20260509084300 140 138 9.0 11.0 0.00 0.01 0.01 1006.2
20260509083757 140 117 5.0 7.0 0.00 0.01 0.01 1006.7
20260509083254 140 131 5.0 7.0 0.00 0.01 0.01 1007.4
20260509082750 140 125 4.0 5.0 0.00 0.01 0.01 1008.1
20260509082247 140 164 0.0 0.0 0.00 0.01 0.01 1008.5
20260509081744 140 131 0.0 0.0 0.00 0.01 0.01 1008.6
20260509081242 140 183 2.0 2.0 0.00 0.01 0.01 1008.8
20260509080740 140 276 6.0 7.0 0.00 0.01 0.01 1009.0
20260509080237 140 242 7.0 9.0 0.00 0.01 0.01 1009.2
20260509075735 140 227 10.0 11.0 0.00 0.01 0.01 1009.6
20260509075232 140 229 10.0 11.0 0.00 0.01 0.01 1009.3
20260509074729 140 245 13.0 16.0 0.00 0.01 0.01 1009.6
20260509074227 140 226 0.0 0.0 0.00 0.01 0.01 1008.8
20260509073723 140 310 0.0 0.0 0.00 0.01 0.01 1009.0
20260509073219 140 340 0.0 0.0 0.00 0.01 0.01 1009.0
20260509072716 140 352 0.0 0.0 0.00 0.01 0.01 1009.2
20260509072213 140 326 4.0 6.0 0.00 0.01 0.01 1009.3
20260509071709 140 12 6.0 7.0 0.00 0.01 0.01 1009.9
20260509071207 140 22 6.0 7.0 0.00 0.01 0.01 1010.1
20260509070703 140 14 5.0 7.0 0.00 0.01 0.01 1010.2
20260509070159 140 38 4.0 6.0 0.00 0.01 0.01 1010.8
20260509065650 140 358 6.0 7.0 0.00 0.01 0.01 1011.5
20260509065147 140 358 7.0 9.0 0.00 0.01 0.01 1011.7
20260509064643 140 347 15.0 18.0 0.00 0.01 0.01 1012.2
20260509064141 140 8 12.0 15.0 0.00 0.01 0.01 1012.3
20260509063638 140 19 20.0 26.0 0.07 0.01 0.01 1012.8
20260509063134 140 6 24.0 29.0 0.07 0.01 0.01 1012.6
20260509062632 140 22 28.0 37.0 0.00 0.00 0.00 1013.1
20260509062129 140 218 17.0 18.0 0.00 0.00 0.00 1012.7
20260509061625 140 343 14.0 22.0 0.00 0.00 0.00 1012.9
20260509061123 140 11 10.0 14.0 0.00 0.00 0.00 1013.1
20260509060621 140 317 1.0 3.0 0.00 0.00 0.00 1012.6
20260509060116 140 314 3.0 6.0 0.00 0.00 0.00 1012.4
20260509055612 140 342 7.0 8.0 0.00 0.00 0.00 1012.5
20260509055108 140 358 0.0 1.0 0.00 0.00 0.00 1012.3
20260509054605 140 7 5.0 10.0 0.00 0.00 0.00 1012.4
20260509054103 140 350 0.0 0.0 0.00 0.00 0.00 1011.8
20260509053601 140 1 4.0 8.0 0.00 0.00 0.00 1012.0
20260509053058 140 337 0.0 0.0 0.00 0.00 0.00 1011.5
20260509052555 140 18 0.0 0.0 0.00 0.00 0.00 1011.6
20260509052053 140 338 4.0 7.0 0.00 0.00 0.00 1011.4
20260509051551 140 9 0.0 0.0 0.00 0.00 0.00 1010.7
20260509051047 140 108 0.0 0.0 0.00 0.00 0.00 1010.6
20260509050544 140 156 0.0 0.0 0.00 0.00 0.00 1010.4
20260509050041 140 113 0.0 0.0 0.00 0.00 0.00 1010.7
20260509045538 140 59 0.0 0.0 0.00 0.00 0.00 1010.7
20260509045035 140 59 0.0 0.0 0.00 0.00 0.00 1010.7
20260509044533 140 50 0.0 0.0 0.00 0.00 0.00 1010.5
20260509044030 140 66 0.0 0.0 0.00 0.00 0.00 1010.2
20260509043526 140 104 0.0 0.0 0.00 0.00 0.00 1010.3
20260509043022 140 72 0.0 0.0 0.00 0.00 0.00 1010.4
20260509042518 140 33 0.0 0.0 0.00 0.00 0.00 1010.1
20260509042015 140 58 0.0 1.0 0.00 0.00 0.00 1010.0
20260509041512 140 82 0.0 0.0 0.00 0.00 0.00 1009.8
20260509041009 140 107 0.0 0.0 0.00 0.00 0.00 1009.9
20260509040507 140 121 0.0 0.0 0.00 0.00 0.00 1009.7
20260509040004 140 165 0.0 0.0 0.00 0.03 0.03 1009.7
20260509035501 140 178 0.0 0.0 0.00 0.03 0.03 1009.4
20260509034957 140 166 0.0 0.0 0.00 0.03 0.03 1009.7
20260509034455 140 115 0.0 0.0 0.00 0.03 0.03 1009.7
20260509033952 140 121 0.0 0.0 0.00 0.03 0.03 1009.5
20260509033449 140 132 0.0 0.0 0.00 0.03 0.03 1009.4
20260509032945 140 154 0.0 0.0 0.00 0.03 0.03 1009.3
20260509032443 140 121 0.0 0.0 0.00 0.03 0.03 1009.1
20260509031941 140 141 0.0 0.0 0.00 0.03 0.03 1008.9
20260509031438 140 164 0.0 0.0 0.00 0.03 0.03 1008.7
20260509030935 140 166 0.0 0.0 0.00 0.03 0.03 1008.8
20260509030433 140 138 0.0 1.0 0.00 0.03 0.03 1008.8
20260509025930 140 158 2.0 6.0 0.00 0.03 0.03 1008.9
20260509025425 140 164 3.0 5.0 0.00 0.03 0.03 1008.5
20260509024920 140 179 4.0 7.0 0.00 0.03 0.03 1008.4
20260509024417 140 181 1.0 3.0 0.00 0.03 0.03 1008.3
20260509023914 140 160 0.0 0.0 0.00 0.03 0.03 1008.4
20260509023412 140 166 0.0 0.0 0.00 0.03 0.03 1008.5
20260509022908 140 156 0.0 0.0 0.00 0.03 0.03 1008.3
20260509022405 140 138 0.0 0.0 0.00 0.03 0.03 1008.5
20260509021903 140 149 0.0 0.0 0.00 0.03 0.03 1008.3
20260509021400 140 149 0.0 0.0 0.00 0.03 0.03 1008.3
20260509020857 140 139 0.0 0.0 0.00 0.03 0.03 1008.4
20260509020355 140 110 0.0 0.0 0.00 0.03 0.03 1008.3
20260509015852 140 129 0.0 0.0 0.00 0.03 0.03 1008.2
20260509015350 140 119 0.0 0.0 0.00 0.03 0.03 1008.2
20260509014846 140 125 0.0 0.0 0.00 0.03 0.03 1008.3
20260509014344 140 155 0.0 0.0 0.00 0.03 0.03 1008.1
20260509013840 140 101 0.0 0.0 0.00 0.03 0.03 1008.0
20260509013337 140 120 0.0 0.0 0.00 0.03 0.03 1008.2
20260509012832 140 128 0.0 0.0 0.00 0.03 0.03 1008.1
20260509012329 140 133 0.0 0.0 0.00 0.03 0.03 1008.1
20260509011827 140 122 0.0 0.0 0.00 0.03 0.03 1008.3
20260509011324 140 125 0.0 0.0 0.00 0.03 0.03 1008.1
20260509010821 140 106 0.0 0.0 0.00 0.03 0.03 1008.1
20260509010318 140 97 5.0 6.0 0.00 0.03 0.03 1008.1
20260509005816 140 93 0.0 0.0 0.00 0.03 0.03 1008.0
20260509005314 140 101 0.0 0.0 0.00 0.03 0.03 1008.1
20260509004813 140 107 0.0 0.0 0.00 0.03 0.03 1007.8
20260509004305 140 122 0.0 0.0 0.00 0.03 0.03 1008.0
20260509003803 140 122 0.0 0.0 0.00 0.03 0.03 1007.8
20260509003300 140 130 1.0 7.0 0.00 0.03 0.03 1007.7
20260509002757 140 132 0.0 0.0 0.00 0.03 0.03 1007.8
20260509002254 140 117 0.0 0.0 0.00 0.03 0.03 1007.6
20260509001752 140 114 2.0 7.0 0.00 0.03 0.03 1007.9
20260509001248 140 147 0.0 0.0 0.00 0.03 0.03 1007.9
20260509000746 140 138 0.0 0.0 0.00 0.03 0.03 1008.1
20260509000243 140 126 0.0 1.0 0.00 0.03 0.03 1008.1
20260508235739 140 86 0.0 0.0 0.00 0.03 0.03 1008.2
20260508235236 140 103 0.0 0.0 0.00 0.03 0.03 1008.0
20260508234734 140 95 0.0 0.0 0.00 0.03 0.03 1008.2
20260508234230 140 136 0.0 0.0 0.00 0.03 0.03 1008.1
20260508233729 140 120 0.0 0.0 0.00 0.03 0.03 1008.4
20260508233227 140 157 6.0 7.0 0.00 0.03 0.03 1008.2
20260508232724 140 108 0.0 0.0 0.00 0.03 0.03 1008.6
20260508232221 140 166 2.0 3.0 0.00 0.03 0.03 1008.5
20260508231719 140 126 0.0 0.0 0.00 0.03 0.03 1008.3
20260508231215 140 157 0.0 0.0 0.00 0.03 0.03 1008.3
20260508230712 140 93 1.0 1.0 0.00 0.03 0.03 1008.5
20260508230208 140 137 0.0 0.0 0.00 0.03 0.03 1008.5
20260508225706 140 198 1.0 2.0 0.00 0.03 0.03 1008.3
20260508225202 140 112 0.0 0.0 0.00 0.03 0.03 1008.3
20260508224700 140 189 6.0 7.0 0.00 0.03 0.03 1008.4
20260508224157 140 175 0.0 0.0 0.00 0.03 0.03 1008.3
20260508223655 140 128 0.0 2.0 0.00 0.03 0.03 1008.4
20260508223152 140 146 8.0 11.0 0.00 0.03 0.03 1008.2
20260508222649 140 157 8.0 10.0 0.00 0.03 0.03 1008.3
20260508222147 140 138 6.0 8.0 0.00 0.03 0.03 1008.4
20260508221643 140 140 4.0 7.0 0.00 0.03 0.03 1008.2
20260508221138 140 162 9.0 11.0 0.00 0.03 0.03 1008.3
20260508220636 140 166 8.0 9.0 0.00 0.03 0.03 1008.5
20260508220132 140 128 7.0 9.0 0.00 0.03 0.03 1008.6
20260508215628 140 152 5.0 9.0 0.00 0.03 0.03 1008.5
20260508215125 140 190 10.0 11.0 0.00 0.03 0.03 1008.6
20260508214622 140 149 9.0 10.0 0.00 0.03 0.03 1008.6
20260508214119 140 151 6.0 7.0 0.00 0.03 0.03 1008.8
20260508213616 140 114 11.0 14.0 0.00 0.03 0.03 1008.5
20260508213112 140 135 3.0 6.0 0.00 0.03 0.03 1008.9
20260508212609 140 149 7.0 10.0 0.00 0.03 0.03 1008.6
20260508212105 140 141 9.0 11.0 0.00 0.03 0.03 1008.8
20260508211600 140 107 5.0 8.0 0.00 0.03 0.03 1008.8
20260508211057 140 124 9.0 13.0 0.00 0.03 0.03 1009.0
20260508210554 140 168 5.0 7.0 0.00 0.03 0.03 1009.1
20260508210051 140 124 3.0 5.0 0.00 0.03 0.03 1008.9
20260508205548 140 108 7.0 10.0 0.00 0.03 0.03 1009.2
20260508205044 140 112 6.0 13.0 0.00 0.03 0.03 1009.5
20260508204541 140 186 2.0 5.0 0.00 0.03 0.03 1009.6
20260508204037 140 163 9.0 14.0 0.00 0.03 0.03 1009.4
20260508203533 140 120 0.0 1.0 0.00 0.03 0.03 1009.4
20260508203029 140 122 1.0 2.0 0.00 0.03 0.03 1009.6
20260508202526 140 91 5.0 8.0 0.00 0.03 0.03 1009.6
20260508202023 140 109 0.0 0.0 0.00 0.03 0.03 1009.7
20260508201520 140 137 7.0 8.0 0.00 0.03 0.03 1009.7
20260508201017 140 174 0.0 0.0 0.00 0.03 0.03 1009.6
20260508200514 140 154 2.0 3.0 0.00 0.03 0.03 1009.8
20260508200009 140 152 3.0 3.0 0.00 0.03 0.03 1010.1
20260508195506 140 191 7.0 10.0 0.00 0.03 0.03 1010.3
20260508195002 140 159 2.0 6.0 0.00 0.03 0.03 1010.0
20260508194500 140 129 6.0 8.0 0.00 0.03 0.03 1010.1
20260508193957 140 130 1.0 6.0 0.00 0.03 0.03 1010.3
20260508193453 140 111 2.0 5.0 0.00 0.03 0.03 1010.1
20260508192950 140 126 3.0 7.0 0.00 0.03 0.03 1010.5
20260508192446 140 137 6.0 7.0 0.00 0.03 0.03 1010.4
20260508191943 140 116 7.0 10.0 0.00 0.03 0.03 1010.6
20260508191441 140 150 6.0 9.0 0.00 0.03 0.03 1011.1
20260508190937 140 138 5.0 7.0 0.00 0.03 0.03 1011.3
20260508190435 140 153 6.0 7.0 0.00 0.03 0.03 1011.3
20260508185931 140 163 1.0 3.0 0.00 0.03 0.03 1011.5
20260508185428 140 191 0.0 0.0 0.00 0.03 0.03 1011.4
20260508184925 140 182 0.0 2.0 0.00 0.03 0.03 1011.2
20260508184423 140 126 5.0 8.0 0.00 0.03 0.03 1010.8
20260508183919 140 187 0.0 0.0 0.00 0.03 0.03 1011.2
20260508183416 140 190 9.0 10.0 0.00 0.03 0.03 1011.6
20260508182911 140 142 7.0 8.0 0.00 0.03 0.03 1011.5
20260508182409 140 109 7.0 8.0 0.00 0.03 0.03 1011.4
20260508181904 140 180 7.0 8.0 0.00 0.03 0.03 1011.6
20260508181401 140 172 5.0 7.0 0.00 0.03 0.03 1011.7
20260508180858 140 173 7.0 8.0 0.00 0.03 0.03 1011.8
20260508180355 140 119 7.0 11.0 0.00 0.03 0.03 1011.8
20260508175851 140 164 0.0 0.0 0.00 0.03 0.03 1012.0
20260508175348 140 153 3.0 9.0 0.00 0.03 0.03 1011.9
20260508174846 140 142 8.0 9.0 0.00 0.03 0.03 1011.9
20260508174343 140 152 6.0 7.0 0.00 0.03 0.03 1012.0
20260508173839 140 98 1.0 3.0 0.00 0.03 0.03 1012.0
20260508173337 140 173 0.0 0.0 0.00 0.03 0.03 1012.2
20260508172832 140 153 0.0 0.0 0.00 0.03 0.03 1012.4
20260508172329 140 175 0.0 0.0 0.00 0.03 0.03 1012.4
20260508171826 140 140 6.0 8.0 0.00 0.03 0.03 1012.6
20260508171322 140 153 0.0 0.0 0.00 0.03 0.03 1012.8
20260508170819 140 113 4.0 6.0 0.00 0.03 0.03 1012.9
20260508170317 140 176 0.0 0.0 0.00 0.03 0.03 1013.0
20260508165814 140 145 5.0 8.0 0.00 0.03 0.03 1013.2
20260508165311 140 144 2.0 6.0 0.00 0.03 0.03 1013.3
20260508164807 140 101 3.0 3.0 0.00 0.03 0.03 1013.0
20260508164304 140 162 5.0 7.0 0.00 0.03 0.03 1013.2
20260508163802 140 120 0.0 0.0 0.00 0.03 0.03 1013.1
20260508163259 140 108 0.0 0.0 0.00 0.03 0.03 1013.2
20260508162755 140 113 5.0 7.0 0.00 0.03 0.03 1013.2
20260508162252 140 178 0.0 0.0 0.00 0.03 0.03 1013.3
20260508161749 140 145 3.0 6.0 0.00 0.03 0.03 1013.4
20260508161246 140 111 6.0 8.0 0.00 0.03 0.03 1013.5
20260508160744 140 143 2.0 5.0 0.00 0.03 0.03 1013.4
20260508160242 140 135 0.0 0.0 0.00 0.03 0.03 1013.5
20260508155738 140 101 0.0 0.0 0.00 0.03 0.03 1013.6
20260508155235 140 161 0.0 0.0 0.00 0.03 0.03 1013.7
20260508154732 140 115 3.0 8.0 0.00 0.03 0.03 1013.8
20260508154230 140 170 0.0 0.0 0.00 0.03 0.03 1014.0
20260508153726 140 143 0.0 0.0 0.00 0.03 0.03 1013.9
20260508153223 140 194 3.0 5.0 0.00 0.03 0.03 1013.8
20260508152720 140 154 0.0 0.0 0.00 0.03 0.03 1013.8
20260508152215 140 121 3.0 6.0 0.00 0.03 0.03 1014.0
20260508151712 140 157 0.0 0.0 0.00 0.03 0.03 1014.1
20260508151209 140 161 0.0 0.0 0.00 0.03 0.03 1013.9
20260508150706 140 120 0.0 0.0 0.00 0.03 0.03 1013.8
20260508150202 140 161 0.0 0.0 0.00 0.03 0.03 1013.9
20260508145658 140 116 6.0 8.0 0.00 0.03 0.03 1014.4
20260508145154 140 128 4.0 8.0 0.00 0.03 0.03 1013.8
20260508144652 140 97 7.0 8.0 0.00 0.03 0.03 1013.9
20260508144150 140 85 0.0 0.0 0.00 0.03 0.03 1014.0
20260508143647 140 121 0.0 0.0 0.00 0.03 0.03 1014.0
20260508143144 140 191 0.0 0.0 0.00 0.03 0.03 1014.2
20260508142640 140 146 0.0 0.0 0.00 0.03 0.03 1014.6
20260508142137 140 133 0.0 0.0 0.00 0.03 0.03 1014.2
20260508141633 140 138 0.0 0.0 0.00 0.03 0.03 1014.6
20260508141131 140 106 0.0 0.0 0.00 0.03 0.03 1014.6
20260508140628 140 166 0.0 0.0 0.00 0.03 0.03 1014.5
20260508140125 140 118 0.0 0.0 0.00 0.03 0.03 1014.7